Regional Weather Roundup
Issued by NWS

Home | Current Version | Previous Version | Text Only | Print | Product List | Glossary Off
Versions: 1 2 3 4 5 6 7 8 9 10 11 12 13 14 15 16 17 18 19 20 21 22 23 24 25 26 27 28 29 30 31 32 33 34 35 36 37 38 39 40 41 42 43 44 45 46 47 48 49 50

799
ASUS43 KBIS 120902
RWRND

NORTH DAKOTA REGIONAL WEATHER ROUNDUP
NATIONAL WEATHER SERVICE BISMARCK ND
300 AM CST TUE DEC 12 2017

NOTE: "FAIR" INDICATES FEW OR NO CLOUDS BELOW 12,000 FEET WITH NO
SIGNIFICANT WEATHER AND/OR OBSTRUCTIONS TO VISIBILITY.


NDZ001>003-009>011-017-121000-
NORTHWEST NORTH DAKOTA

CITY           SKY/WX    TMP DP  RH WIND       PRES   REMARKS
WILLISTON        N/A    N/A N/A N/A MISG      30.20F
MINOT          CLEAR     30  26  85 SW14      30.14F WCI  19
MINOT AFB      PTCLDY    28  25  88 W10       30.13F WCI  18
$$

NDZ018>021-031>035-040>046-121000-
SOUTHWEST NORTH DAKOTA

CITY           SKY/WX    TMP DP  RH WIND       PRES   REMARKS
BISMARCK       CLOUDY    25  23  92 W3        30.24F
DICKINSON      CLOUDY    24  22  91 SW7       30.20F WCI  16
GARRISON         N/A     25  23  92 W9        30.18F WCI  15
HETTINGER ARPT CLOUDY    20  17  88 W7        30.27F WCI  11
$$

NDZ004>008-012>016-024-026-027-054-121000-
NORTHEAST NORTH DAKOTA

CITY           SKY/WX    TMP DP  RH WIND       PRES   REMARKS
GRAND FORKS    CLOUDY    15  11  83 S7        30.22F WCI   5
GRND FRKS AFB  CLOUDY    17  13  83 SW8       30.21F WCI   7
DEVILS LAKE    CLOUDY    24  21  88 SW7       30.15F WCI  16
$$

NDZ022-023-025-028>030-036>039-047>053-121000-
SOUTHEAST NORTH DAKOTA

CITY           SKY/WX    TMP DP  RH WIND       PRES   REMARKS
FARGO          CLOUDY    11   7  84 S7        30.27F WCI   0
JAMESTOWN      CLOUDY    25  22  88 W9        30.19F WCI  15
$$





USA.gov is the U.S. government's official web portal to all federal, state and local government web resources and services.